[[{"header":{"parameterUnit":"m.s-1","parameterCategory":1,"la1":30.2991,"la2":30.254,"lo1":-89.0895,"lo2":-89.0444,"dy":0.0017,"dx":0.0017,"nx":28,"ny":28,"refTime":"2025-03-22T09:00:00:Z","depth":0,"parameterNumber":2,"parameterNumberName":"U-component_of_WINDS"},"data":[0,0,0,0,0,0,0,0,0,0,0,0,0,0,0,0,0,0,0,0,0,0,0,0,0,0,0,0,0,0,0,0,0,0,0,0,0,0,0,0,0,0,0,0,0,0,0,0,0,0,0,0,0,0,0,0,0,0,2.467,2.4671,0,2.4726,2.4727,2.4728,2.4618,2.4614,2.4611,2.4607,2.4668,2.4672,2.4677,0,0,0,0,0,0,0,0,0,0,0,0,0,2.4468,2.4472,2.467,2.4671,2.4671,2.4726,2.4727,2.4728,2.4618,2.4614,2.461,2.4605,2.4666,2.4672,2.4678,0,0,0,0,0,0,0,0,0,0,0,0,0,2.4543,2.4474,2.467,2.4623,2.462,2.4726,2.4727,2.4728,2.4619,2.4614,2.4608,2.4603,2.4664,2.4671,2.4679,2.4834,0,0,2.4702,2.4705,0,0,0,0,0,0,0,0,2.4539,2.4551,2.463,2.4627,2.4623,2.4659,2.4678,2.4763,2.4621,2.462,2.4607,2.4601,2.4669,2.4676,2.4699,2.4836,2.4839,2.4702,2.4707,2.471,2.4712,0,0,0,0,0,0,0,2.4534,2.4548,2.4692,2.4631,2.4627,2.46,2.4604,2.4694,2.4674,2.4619,2.4611,2.4619,2.4667,2.4692,2.4699,2.484,2.4702,2.4709,2.4713,2.4716,2.5103,2.5108,0,0,0,0,0,0,2.4535,2.4544,2.469,2.4694,2.4567,2.4608,2.4613,2.4653,2.4673,2.4671,2.4624,2.4614,2.4682,2.4691,2.4701,2.488,2.471,2.4717,2.4721,2.5097,2.5104,2.511,0,0,0,0,0,0,2.4531,2.4549,2.4688,2.4617,2.4633,2.4617,2.4663,2.4657,2.4682,2.4677,2.4673,2.4653,2.4678,2.4691,2.48,2.488,2.472,2.4727,2.509,2.5099,2.5107,2.5241,0,0,0,0,0,0,2.4525,2.4548,2.4607,2.4619,2.4637,2.4787,2.4668,2.4662,2.4695,2.4683,2.4703,2.4701,2.4674,2.479,2.4808,2.4888,2.4733,2.5083,2.5094,2.5105,2.5229,2.5253,2.5274,0,0,0,0,0,2.4519,2.4644,2.461,2.4629,2.471,2.4792,2.4802,2.4768,2.4702,2.476,2.4756,2.47,2.487,2.4802,2.4821,2.4905,2.5078,2.5091,2.5104,2.5219,2.5249,2.5273,0,0,0,0,0,0,2.4643,2.4645,2.4608,2.474,2.4766,2.4773,2.4845,2.48,2.4846,2.4833,2.4789,2.4795,2.4912,2.492,2.4845,2.5054,2.4962,2.498,2.5044,2.5071,2.5093,2.5087,2.4739,0,0,0,0,0,2.4686,2.4751,2.475,2.4867,2.4882,2.4862,2.4896,2.4867,2.4893,2.4904,2.4908,2.4935,2.4994,2.5034,2.5088,2.5231,2.5232,2.5298,2.532,2.5338,2.5353,2.5425,2.5453,2.5153,2.5153,2.5153,0,0,2.4775,2.4784,2.4828,2.4892,2.4909,2.4977,2.4872,2.495,2.4999,2.4916,2.5018,2.5022,2.505,2.5176,2.5232,2.5186,2.5436,2.5355,2.537,2.5374,2.5441,2.547,2.5495,2.5162,2.516,2.5159,0,0,2.4971,2.4986,2.5083,2.5101,2.5127,2.5113,2.5136,2.5149,2.5148,2.525,2.5187,2.5247,2.535,2.5371,2.5395,2.5597,2.5546,2.5616,2.5731,2.5802,2.5825,2.5846,2.5914,2.594,2.5632,2.5632,2.5632,0,2.5078,2.5178,2.5139,2.5219,2.5248,2.5175,2.5271,2.5292,2.5335,2.5356,2.5305,2.543,2.5444,2.5571,2.562,2.5644,2.5667,2.5612,2.5825,2.5845,2.5864,2.5929,2.5955,2.564,2.5639,2.5638,2.5638,0,2.5306,2.5377,2.5452,2.5493,2.5531,2.562,2.5593,2.5637,2.5605,2.5595,2.5699,2.5713,2.5766,2.5795,2.5766,2.5918,2.5888,2.5832,2.5739,2.5901,2.5961,2.5986,2.5652,2.5649,2.5646,2.5644,0,0,2.5581,2.5598,2.5626,2.5642,2.5664,2.5718,2.5803,2.5854,2.589,2.5922,2.599,2.6079,2.6025,2.6053,2.6026,2.6088,2.6242,2.6023,2.6023,2.606,2.6406,2.6445,2.6475,2.621,2.6214,2.6218,2.6402,0,2.5772,2.5916,2.5883,2.6025,2.6087,2.6018,2.6091,2.6113,2.6107,2.6159,2.6153,2.6214,2.6141,2.6156,2.6216,2.6211,2.631,2.6198,2.6271,2.6274,2.6262,2.6507,2.6549,2.6722,2.6426,2.643,2.6433,0,2.6014,2.6052,2.62,2.6209,2.6234,2.6301,2.6343,2.6394,2.6417,2.6408,2.6438,2.6397,2.648,2.6388,2.6501,2.6425,2.6453,2.6455,2.6461,2.6463,2.6361,2.6512,2.6777,2.6802,2.647,2.6467,2.6464,0,2.6194,2.6284,2.6382,2.6399,2.6413,2.6461,2.6469,2.6486,2.6518,2.6556,2.6575,2.6623,2.6649,2.6687,2.6659,2.6596,2.6775,2.6682,2.6768,2.6768,2.6806,2.6803,2.7075,2.6831,2.6831,2.683,2.683,0,2.6408,2.65,2.6462,2.6523,2.6624,2.6585,2.6685,2.6686,2.6701,2.676,2.6705,2.6761,2.6724,2.6777,2.6757,2.6851,2.6864,2.6858,2.685,2.686,2.6861,2.6876,2.6861,2.6837,2.6836,2.6834,2.6833,0,2.6625,2.6604,2.6706,2.6711,2.6714,2.6787,2.6791,2.6847,2.6836,2.6911,2.6926,2.691,2.6969,2.6947,2.7011,2.6997,2.7116,2.7095,2.7107,2.71,2.7186,2.7176,2.7474,2.7509,2.7246,2.7249,2.7251,0,2.6761,2.6829,2.6841,2.6875,2.6887,2.6944,2.6975,2.694,2.6974,2.7004,2.7056,2.711,2.7151,2.7249,2.7243,2.7291,2.7268,2.7369,2.7275,2.7282,2.7265,2.7259,2.7264,2.7387,2.739,2.7393,2.7395,0,2.7003,2.6988,2.7035,2.7078,2.7116,2.7149,2.7176,2.7208,2.7174,2.7216,2.7275,2.7307,2.737,2.7424,2.7466,2.7475,2.7429,2.7425,2.7446,2.7455,2.7457,2.7453,2.7154,2.7417,2.7415,2.7413,2.7412,2.7411,2.718,2.7237,2.7252,2.7305,2.7322,2.7348,2.7399,2.7394,2.7443,2.749,2.7467,2.7535,2.7554,2.7605,2.762,2.7672,2.7633,2.7665,2.7673,2.768,2.7689,2.7453,2.768,2.768,2.7679,2.7679,2.7678,0,2.7416,2.7422,2.7471,2.751,2.7551,2.7504,2.7532,2.7569,2.7629,2.765,2.7691,2.7757,2.7809,2.7806,2.7853,2.7895,2.7875,2.7908,2.7903,2.7905,2.7724,2.7698,2.7924,2.7924,2.7924,2.7923,2.7923,2.7923,2.7543,2.7634,2.7621,2.772,2.7725,2.779,2.7809,2.7832,2.7848,2.7924,2.7966,2.7964,2.7975,2.8022,2.8066,2.8064,2.8082,2.8123,2.8113,2.7943,2.7918,2.7895,2.787,2.8128,2.8128,2.8288,2.829,2.8291]},{"header":{"parameterUnit":"m.s-1","parameterCategory":1,"la1":30.2991,"la2":30.254,"lo1":-89.0895,"lo2":-89.0444,"dy":0.0017,"dx":0.0017,"nx":28,"ny":28,"refTime":"2025-03-22T09:00:00:Z","depth":0,"parameterNumber":3,"parameterNumberName":"V-component_of_WINDS"},"data":[0,0,0,0,0,0,0,0,0,0,0,0,0,0,0,0,0,0,0,0,0,0,0,0,0,0,0,0,0,0,0,0,0,0,0,0,0,0,0,0,0,0,0,0,0,0,0,0,0,0,0,0,0,0,0,0,0,0,2.591,2.5912,0,2.6103,2.6105,2.6107,2.6107,2.6104,2.6102,2.61,2.6291,2.6298,2.6305,0,0,0,0,0,0,0,0,0,0,0,0,0,2.5531,2.5538,2.591,2.5912,2.5915,2.6103,2.6105,2.6108,2.6107,2.6104,2.6101,2.6098,2.6288,2.6297,2.6306,0,0,0,0,0,0,0,0,0,0,0,0,0,2.5707,2.5541,2.5909,2.5937,2.5942,2.6102,2.6105,2.6109,2.6108,2.6104,2.6101,2.6097,2.6285,2.6296,2.6307,2.6451,0,0,2.6341,2.6346,0,0,0,0,0,0,0,0,2.5697,2.5721,2.5931,2.5936,2.5941,2.6077,2.6042,2.6223,2.6109,2.6045,2.61,2.6095,2.6222,2.6238,2.6282,2.646,2.6468,2.6342,2.6349,2.6353,2.6357,0,0,0,0,0,0,0,2.5685,2.5713,2.5986,2.5934,2.594,2.5937,2.5958,2.6076,2.6152,2.605,2.605,2.6074,2.6224,2.6272,2.6287,2.647,2.6342,2.6351,2.6358,2.6363,2.677,2.6774,0,0,0,0,0,0,2.5668,2.5702,2.598,2.5992,2.5807,2.5947,2.597,2.6037,2.6151,2.6164,2.6077,2.6073,2.6255,2.6274,2.6294,2.6467,2.6353,2.6364,2.637,2.6766,2.6771,2.6776,0,0,0,0,0,0,2.566,2.5693,2.5972,2.5847,2.5883,2.5957,2.6033,2.6043,2.6091,2.6171,2.6183,2.6112,2.6252,2.6278,2.6411,2.6474,2.6369,2.6379,2.6761,2.6768,2.6774,2.6816,0,0,0,0,0,0,2.5649,2.569,2.5748,2.5849,2.5889,2.609,2.6037,2.6049,2.6111,2.6108,2.6207,2.622,2.6251,2.6395,2.6422,2.6487,2.6388,2.6756,2.6764,2.6772,2.681,2.6823,2.6835,0,0,0,0,0,2.5636,2.5751,2.5751,2.5784,2.5964,2.6093,2.6116,2.6152,2.6116,2.6173,2.6223,2.6217,2.6462,2.6408,2.6439,2.6508,2.6752,2.6762,2.6771,2.6804,2.682,2.6835,0,0,0,0,0,0,2.5655,2.5765,2.5766,2.5918,2.5997,2.6093,2.6166,2.6169,2.6257,2.625,2.6288,2.631,2.6443,2.6489,2.6427,2.6651,2.6602,2.6618,2.6617,2.6633,2.6645,2.6631,2.6397,0,0,0,0,0,2.5677,2.5775,2.5866,2.5991,2.603,2.6091,2.6149,2.617,2.6251,2.6284,2.6344,2.6422,2.6515,2.6577,2.6668,2.6816,2.6836,2.6878,2.6891,2.6901,2.6914,2.6992,2.7011,2.6807,2.6807,2.6806,0,0,2.5723,2.5796,2.5855,2.5997,2.606,2.6158,2.6119,2.6226,2.6298,2.6299,2.6429,2.6476,2.6564,2.6704,2.6769,2.6746,2.6974,2.6913,2.692,2.6928,2.7004,2.7023,2.704,2.6813,2.6812,2.6811,0,0,2.5857,2.5924,2.6034,2.6098,2.6194,2.6233,2.626,2.6356,2.6387,2.6518,2.652,2.6605,2.6767,2.6829,2.6882,2.7035,2.7032,2.7064,2.713,2.7205,2.7221,2.7236,2.7288,2.7307,2.7077,2.7077,2.7077,0,2.5902,2.6053,2.609,2.6197,2.6257,2.6264,2.6374,2.6433,2.6553,2.6593,2.6567,2.6769,2.6829,2.6982,2.7019,2.7062,2.7091,2.7053,2.7216,2.7231,2.7245,2.7296,2.7316,2.708,2.708,2.7079,2.7079,0,2.6102,2.6206,2.6283,2.6401,2.647,2.6577,2.6627,2.6692,2.6705,2.6746,2.6877,2.6949,2.7053,2.7091,2.7105,2.7245,2.7228,2.7209,2.716,2.7267,2.7315,2.7335,2.7085,2.7083,2.7082,2.7082,0,0,2.6256,2.6391,2.6418,2.647,2.6575,2.6655,2.676,2.6864,2.6918,2.6999,2.7087,2.7222,2.7204,2.7264,2.7284,2.735,2.7464,2.7322,2.7325,2.7345,2.762,2.7633,2.7655,2.7462,2.7466,2.7469,2.7612,0,2.6401,2.6592,2.6627,2.6792,2.6887,2.6893,2.6984,2.7056,2.7096,2.718,2.7222,2.7317,2.7287,2.7323,2.7389,2.7436,2.752,2.7427,2.7541,2.7545,2.7518,2.7681,2.7696,2.7828,2.7631,2.7634,2.7637,0,2.6596,2.6683,2.6859,2.6948,2.6989,2.7071,2.7167,2.7248,2.7328,2.7352,2.7417,2.7429,2.7535,2.7482,2.7626,2.7562,2.761,2.764,2.7646,2.7657,2.7597,2.7695,2.7871,2.789,2.7667,2.7664,2.7662,0,2.6688,2.6849,2.6975,2.7019,2.7127,2.7184,2.7231,2.7308,2.7367,2.7449,2.7487,2.758,2.7631,2.7701,2.7736,2.7695,2.7877,2.7828,2.7898,2.7897,2.7936,2.7933,2.8121,2.7969,2.7968,2.7968,2.7967,0,2.6846,2.6952,2.7017,2.7094,2.7212,2.7249,2.7363,2.7409,2.7476,2.7559,2.7569,2.7646,2.7688,2.777,2.7798,2.7911,2.7935,2.7954,2.796,2.7954,2.7951,2.7985,2.7977,2.7973,2.7972,2.7971,2.797,0,2.6969,2.7018,2.7154,2.7244,2.7269,2.7352,2.7428,2.7501,2.7539,2.7644,2.767,2.773,2.7827,2.7869,2.7988,2.8006,2.8135,2.8135,2.8109,2.8111,2.8178,2.817,2.8394,2.8424,2.8253,2.8254,2.8256,0,2.7067,2.7149,2.7248,2.7305,2.7354,2.7446,2.7506,2.7544,2.7606,2.7701,2.7762,2.7859,2.7939,2.8092,2.8144,2.8234,2.8235,2.8307,2.8249,2.8238,2.8234,2.8228,2.8235,2.8317,2.8319,2.8321,2.8322,0,2.7233,2.7252,2.734,2.7436,2.7508,2.7584,2.7659,2.7704,2.7752,2.782,2.7921,2.7983,2.8103,2.8198,2.8291,2.8335,2.8336,2.8339,2.836,2.8354,2.8335,2.8344,2.8137,2.8334,2.8333,2.8332,2.8331,2.8331,2.7346,2.7418,2.7498,2.7595,2.7655,2.7723,2.7796,2.7843,2.7928,2.8031,2.8047,2.8152,2.8226,2.835,2.8398,2.8479,2.8461,2.8491,2.8499,2.8505,2.8509,2.8322,2.8496,2.8496,2.8495,2.8495,2.8495,0,2.7512,2.7563,2.7652,2.7756,2.783,2.7826,2.7907,2.7969,2.8063,2.8133,2.8211,2.8323,2.8415,2.8473,2.8565,2.8618,2.862,2.864,2.8636,2.8646,2.8521,2.8493,2.8637,2.8637,2.8637,2.8637,2.8637,2.8637,2.7607,2.7728,2.7756,2.7905,2.7955,2.806,2.8107,2.8168,2.8224,2.835,2.8427,2.8465,2.8529,2.8625,2.8707,2.8721,2.8753,2.8775,2.8788,2.867,2.8655,2.8641,2.8615,2.8782,2.8782,2.8906,2.8907,2.8908]}]]